Volver al catálogo

WUHAN-1

ActivoCienciaSSO
NORAD 59810·PAYLOAD·🇨🇳 China
Este nombre de satélite aún no ha sido confirmado por fuentes oficiales.

Lanzado May 21, 2024 desde Jiuquan Satellite Launch Center

Loading…

Próximos Pases (próximas 24 horas)

TLE

ActualizadoSource: Space-Track

Época: Sep 14, 2026, 22:35 UTC

1 59810U 24095A   26257.94104359  .00003205  00000-0  19965-3 0  9993
2 59810  97.5284 335.4684 0004460 114.8624 245.3069 15.10275546127693

Sigue WUHAN-1 en tiempo real con AllMySat

Download on the App Store